Year,Month,Day,Hour,Minute,Value (Times are PST for temperature in C)
2020,04,12,00,00,5.50
2020,04,12,00,01,5.50
2020,04,12,00,02,5.50
2020,04,12,00,03,5.50
2020,04,12,00,04,5.40
2020,04,12,00,05,5.40
2020,04,12,00,06,5.40
2020,04,12,00,07,5.40
2020,04,12,00,08,5.40
2020,04,12,00,09,5.40
2020,04,12,00,10,5.30
2020,04,12,00,11,5.30
2020,04,12,00,12,5.30
2020,04,12,00,13,5.30
2020,04,12,00,14,5.30
2020,04,12,00,15,5.30
2020,04,12,00,16,5.30
2020,04,12,00,17,5.30
2020,04,12,00,18,5.30
2020,04,12,00,19,5.30
2020,04,12,00,20,5.30
2020,04,12,00,21,5.30
2020,04,12,00,22,5.30
2020,04,12,00,23,5.30
2020,04,12,00,24,5.40
2020,04,12,00,25,5.40
2020,04,12,00,26,5.40
2020,04,12,00,27,5.40
2020,04,12,00,28,5.40
2020,04,12,00,29,5.30
2020,04,12,00,30,5.30
2020,04,12,00,31,5.30
2020,04,12,00,32,5.30
2020,04,12,00,33,5.30
2020,04,12,00,34,5.30
2020,04,12,00,35,5.30
2020,04,12,00,36,5.30
2020,04,12,00,37,5.30
2020,04,12,00,38,5.30
2020,04,12,00,39,5.30
2020,04,12,00,40,5.20
2020,04,12,00,41,5.20
2020,04,12,00,42,5.10
2020,04,12,00,43,5.10
2020,04,12,00,44,5.10
2020,04,12,00,45,5.10
2020,04,12,00,46,5.10
2020,04,12,00,47,5.10
2020,04,12,00,48,5.10
2020,04,12,00,49,5.00
2020,04,12,00,50,5.00
2020,04,12,00,51,5.00
2020,04,12,00,52,5.00
2020,04,12,00,53,4.90
2020,04,12,00,54,4.90
2020,04,12,00,55,4.90
2020,04,12,00,56,4.90
2020,04,12,00,57,4.90
2020,04,12,00,58,4.90
2020,04,12,00,59,4.90
2020,04,12,01,00,4.90
2020,04,12,01,01,4.90
2020,04,12,01,02,4.90
2020,04,12,01,03,4.90
2020,04,12,01,04,4.80
2020,04,12,01,05,4.80
2020,04,12,01,06,4.80
2020,04,12,01,07,4.80
2020,04,12,01,08,4.80
2020,04,12,01,09,4.80
2020,04,12,01,10,4.80
2020,04,12,01,11,4.80
2020,04,12,01,12,4.70
2020,04,12,01,13,4.70
2020,04,12,01,14,4.70
2020,04,12,01,15,4.70
2020,04,12,01,16,4.60
2020,04,12,01,17,4.60
2020,04,12,01,18,4.60
2020,04,12,01,19,4.60
2020,04,12,01,20,4.50
2020,04,12,01,21,4.50
2020,04,12,01,22,4.50
2020,04,12,01,23,4.40
2020,04,12,01,24,4.40
2020,04,12,01,25,4.40
2020,04,12,01,26,4.40
2020,04,12,01,27,4.40
2020,04,12,01,28,4.40
2020,04,12,01,29,4.30
2020,04,12,01,30,4.30
2020,04,12,01,31,4.30
2020,04,12,01,32,4.30
2020,04,12,01,33,4.30
2020,04,12,01,34,4.30
2020,04,12,01,35,4.30
2020,04,12,01,36,4.30
2020,04,12,01,37,4.30
2020,04,12,01,38,4.30
2020,04,12,01,39,4.30
2020,04,12,01,40,4.30
2020,04,12,01,41,4.30
2020,04,12,01,42,4.30
2020,04,12,01,43,4.20
2020,04,12,01,44,4.20
2020,04,12,01,45,4.20
2020,04,12,01,46,4.20
2020,04,12,01,47,4.10
2020,04,12,01,48,4.10
2020,04,12,01,49,4.10
2020,04,12,01,50,4.10
2020,04,12,01,51,4.10
2020,04,12,01,52,4.10
2020,04,12,01,53,4.00
2020,04,12,01,54,4.00
2020,04,12,01,55,4.00
2020,04,12,01,56,4.00
2020,04,12,01,57,3.90
2020,04,12,01,58,3.90
2020,04,12,01,59,3.90
2020,04,12,02,00,3.90
2020,04,12,02,01,3.90
2020,04,12,02,02,3.90
2020,04,12,02,03,3.90
2020,04,12,02,04,3.90
2020,04,12,02,05,3.90
2020,04,12,02,06,3.90
2020,04,12,02,07,3.90
2020,04,12,02,08,3.90
2020,04,12,02,09,3.80
2020,04,12,02,10,3.80
2020,04,12,02,11,3.80
2020,04,12,02,12,3.70
2020,04,12,02,13,3.70
2020,04,12,02,14,3.70
2020,04,12,02,15,3.60
2020,04,12,02,16,3.60
2020,04,12,02,17,3.60
2020,04,12,02,18,3.60
2020,04,12,02,19,3.70
2020,04,12,02,20,3.70
2020,04,12,02,21,3.70
2020,04,12,02,22,3.70
2020,04,12,02,23,3.60
2020,04,12,02,24,3.60
2020,04,12,02,25,3.60
2020,04,12,02,26,3.60
2020,04,12,02,27,3.60
2020,04,12,02,28,3.60
2020,04,12,02,29,3.60
2020,04,12,02,30,3.60
2020,04,12,02,31,3.60
2020,04,12,02,32,3.70
2020,04,12,02,33,3.70
2020,04,12,02,34,3.80
2020,04,12,02,35,3.80
2020,04,12,02,36,3.80
2020,04,12,02,37,3.80
2020,04,12,02,38,3.80
2020,04,12,02,39,3.80
2020,04,12,02,40,3.80
2020,04,12,02,41,3.80
2020,04,12,02,42,3.80
2020,04,12,02,43,3.80
2020,04,12,02,44,3.90
2020,04,12,02,45,3.90
2020,04,12,02,46,3.90
2020,04,12,02,47,3.90
2020,04,12,02,48,3.90
2020,04,12,02,49,3.90
2020,04,12,02,50,3.90
2020,04,12,02,51,3.90
2020,04,12,02,52,3.90
2020,04,12,02,53,3.90
2020,04,12,02,54,3.90
2020,04,12,02,55,3.90
2020,04,12,02,56,4.00
2020,04,12,02,57,4.00
2020,04,12,02,58,4.00
2020,04,12,02,59,4.00
2020,04,12,03,00,4.00
2020,04,12,03,01,4.00
2020,04,12,03,02,4.00
2020,04,12,03,03,4.10
2020,04,12,03,04,4.10
2020,04,12,03,05,4.10
2020,04,12,03,06,4.10
2020,04,12,03,07,4.10
2020,04,12,03,08,4.00
2020,04,12,03,09,4.00
2020,04,12,03,10,3.90
2020,04,12,03,11,3.90
2020,04,12,03,12,3.90
2020,04,12,03,13,3.80
2020,04,12,03,14,3.80
2020,04,12,03,15,3.70
2020,04,12,03,16,3.70
2020,04,12,03,17,3.70
2020,04,12,03,18,3.60
2020,04,12,03,19,3.60
2020,04,12,03,20,3.60
2020,04,12,03,21,3.60
2020,04,12,03,22,3.50
2020,04,12,03,23,3.50
2020,04,12,03,24,3.50
2020,04,12,03,25,3.40
2020,04,12,03,26,3.40
2020,04,12,03,27,3.30
2020,04,12,03,28,3.30
2020,04,12,03,29,3.30
2020,04,12,03,30,3.30
2020,04,12,03,31,3.20
2020,04,12,03,32,3.20
2020,04,12,03,33,3.20
2020,04,12,03,34,3.20
2020,04,12,03,35,3.20
2020,04,12,03,36,3.20
2020,04,12,03,37,3.20
2020,04,12,03,38,3.20
2020,04,12,03,39,3.20
2020,04,12,03,40,3.20
2020,04,12,03,41,3.30
2020,04,12,03,42,3.30
2020,04,12,03,43,3.30
2020,04,12,03,44,3.30
2020,04,12,03,45,3.30
2020,04,12,03,46,3.30
2020,04,12,03,47,3.30
2020,04,12,03,48,3.30
2020,04,12,03,49,3.30
2020,04,12,03,50,3.30
2020,04,12,03,51,3.30
2020,04,12,03,52,3.30
2020,04,12,03,53,3.30
2020,04,12,03,54,3.40
2020,04,12,03,55,3.40
2020,04,12,03,56,3.50
2020,04,12,03,57,3.60
2020,04,12,03,58,3.60
2020,04,12,03,59,3.70
2020,04,12,04,00,3.80
2020,04,12,04,01,3.90
2020,04,12,04,02,4.00
2020,04,12,04,03,4.10
2020,04,12,04,04,4.20
2020,04,12,04,05,4.30
2020,04,12,04,06,4.40
2020,04,12,04,07,4.50
2020,04,12,04,08,4.60
2020,04,12,04,09,4.70
2020,04,12,04,10,4.70
2020,04,12,04,11,4.80
2020,04,12,04,12,4.90
2020,04,12,04,13,5.00
2020,04,12,04,14,5.10
2020,04,12,04,15,5.10
2020,04,12,04,16,5.20
2020,04,12,04,17,5.20
2020,04,12,04,18,5.30
2020,04,12,04,19,5.30
2020,04,12,04,20,5.40
2020,04,12,04,21,5.40
2020,04,12,04,22,5.50
2020,04,12,04,23,5.50
2020,04,12,04,24,5.60
2020,04,12,04,25,5.70
2020,04,12,04,26,5.80
2020,04,12,04,27,5.90
2020,04,12,04,28,6.00
2020,04,12,04,29,6.10
2020,04,12,04,30,6.20
2020,04,12,04,31,6.30
2020,04,12,04,32,6.40
2020,04,12,04,33,6.50
2020,04,12,04,34,6.60
2020,04,12,04,35,6.60
2020,04,12,04,36,6.70
2020,04,12,04,37,6.70
2020,04,12,04,38,6.70
2020,04,12,04,39,6.70
2020,04,12,04,40,6.70
2020,04,12,04,41,6.70
2020,04,12,04,42,6.70
2020,04,12,04,43,6.70
2020,04,12,04,44,6.70
2020,04,12,04,45,6.80
2020,04,12,04,46,6.80
2020,04,12,04,47,6.80
2020,04,12,04,48,6.80
2020,04,12,04,49,6.80
2020,04,12,04,50,6.80
2020,04,12,04,51,6.80
2020,04,12,04,52,6.80
2020,04,12,04,53,6.90
2020,04,12,04,54,6.90
2020,04,12,04,55,6.90
2020,04,12,04,56,6.90
2020,04,12,04,57,6.90
2020,04,12,04,58,7.00
2020,04,12,04,59,7.00
2020,04,12,05,00,7.00
2020,04,12,05,01,7.00
2020,04,12,05,02,7.00
2020,04,12,05,03,7.00
2020,04,12,05,04,7.00
2020,04,12,05,05,7.00
2020,04,12,05,06,7.00
2020,04,12,05,07,7.00
2020,04,12,05,08,7.00
2020,04,12,05,09,7.00
2020,04,12,05,10,7.10
2020,04,12,05,11,7.10
2020,04,12,05,12,7.10
2020,04,12,05,13,7.10
2020,04,12,05,14,7.10
2020,04,12,05,15,7.10
2020,04,12,05,16,7.10
2020,04,12,05,17,7.20
2020,04,12,05,18,7.20
2020,04,12,05,19,7.20
2020,04,12,05,20,7.20
2020,04,12,05,21,7.20
2020,04,12,05,22,7.20
2020,04,12,05,23,7.20
2020,04,12,05,24,7.20
2020,04,12,05,25,7.20
2020,04,12,05,26,7.20
2020,04,12,05,27,7.20
2020,04,12,05,28,7.20
2020,04,12,05,29,7.20
2020,04,12,05,30,7.20
2020,04,12,05,31,7.20
2020,04,12,05,32,7.20
2020,04,12,05,33,7.20
2020,04,12,05,34,7.20
2020,04,12,05,35,7.20
2020,04,12,05,36,7.20
2020,04,12,05,37,7.20
2020,04,12,05,38,7.20
2020,04,12,05,39,7.20
2020,04,12,05,40,7.20
2020,04,12,05,41,7.20
2020,04,12,05,42,7.20
2020,04,12,05,43,7.30
2020,04,12,05,44,7.30
2020,04,12,05,45,7.30
2020,04,12,05,46,7.30
2020,04,12,05,47,7.30
2020,04,12,05,48,7.30
2020,04,12,05,49,7.30
2020,04,12,05,50,7.30
2020,04,12,05,51,7.30
2020,04,12,05,52,7.30
2020,04,12,05,53,7.30
2020,04,12,05,54,7.30
2020,04,12,05,55,7.30
2020,04,12,05,56,7.30
2020,04,12,05,57,7.30
2020,04,12,05,58,7.30
2020,04,12,05,59,7.30
2020,04,12,06,00,7.30
2020,04,12,06,01,7.30
2020,04,12,06,02,7.30
2020,04,12,06,03,7.30
2020,04,12,06,04,7.30
2020,04,12,06,05,7.30
2020,04,12,06,06,7.30
2020,04,12,06,07,7.30
2020,04,12,06,08,7.30
2020,04,12,06,09,7.20
2020,04,12,06,10,7.20
2020,04,12,06,11,7.20
2020,04,12,06,12,7.30
2020,04,12,06,13,7.30
2020,04,12,06,14,7.30
2020,04,12,06,15,7.30
2020,04,12,06,16,7.30
2020,04,12,06,17,7.30
2020,04,12,06,18,7.30
2020,04,12,06,19,7.30
2020,04,12,06,20,7.30
2020,04,12,06,21,7.30
2020,04,12,06,22,7.30
2020,04,12,06,23,7.20
2020,04,12,06,24,7.20
2020,04,12,06,25,7.20
2020,04,12,06,26,7.20
2020,04,12,06,27,7.10
2020,04,12,06,28,7.10
2020,04,12,06,29,7.10
2020,04,12,06,30,7.10
2020,04,12,06,31,7.10
2020,04,12,06,32,7.10
2020,04,12,06,33,7.10
2020,04,12,06,34,7.10
2020,04,12,06,35,7.10
2020,04,12,06,36,7.10
2020,04,12,06,37,7.10
2020,04,12,06,38,7.10
2020,04,12,06,39,7.10
2020,04,12,06,40,7.10
2020,04,12,06,41,7.10
2020,04,12,06,42,7.10
2020,04,12,06,43,7.10
2020,04,12,06,44,7.10
2020,04,12,06,45,7.10
2020,04,12,06,46,7.10
2020,04,12,06,47,7.10
2020,04,12,06,48,7.10
2020,04,12,06,49,7.10
2020,04,12,06,50,7.10
2020,04,12,06,51,7.20
2020,04,12,06,52,7.20
2020,04,12,06,53,7.20
2020,04,12,06,54,7.20
2020,04,12,06,55,7.20
2020,04,12,06,56,7.20
2020,04,12,06,57,7.20
2020,04,12,06,58,7.20
2020,04,12,06,59,7.20
2020,04,12,07,00,7.20
2020,04,12,07,01,7.30
2020,04,12,07,02,7.30
2020,04,12,07,03,7.30
2020,04,12,07,04,7.30
2020,04,12,07,05,7.40
2020,04,12,07,06,7.40
2020,04,12,07,07,7.40
2020,04,12,07,08,7.50
2020,04,12,07,09,7.50
2020,04,12,07,10,7.60
2020,04,12,07,11,7.60
2020,04,12,07,12,7.60
2020,04,12,07,13,7.70
2020,04,12,07,14,7.70
2020,04,12,07,15,7.70
2020,04,12,07,16,7.80
2020,04,12,07,17,7.80
2020,04,12,07,18,7.80
2020,04,12,07,19,7.90
2020,04,12,07,20,7.90
2020,04,12,07,21,7.90
2020,04,12,07,22,8.00
2020,04,12,07,23,8.00
2020,04,12,07,24,8.00
2020,04,12,07,25,8.10
2020,04,12,07,26,8.10
2020,04,12,07,27,8.10
2020,04,12,07,28,8.10
2020,04,12,07,29,8.20
2020,04,12,07,30,8.20
2020,04,12,07,31,8.20
2020,04,12,07,32,8.20
2020,04,12,07,33,8.20
2020,04,12,07,34,8.20
2020,04,12,07,35,8.30
2020,04,12,07,36,8.30
2020,04,12,07,37,8.30
2020,04,12,07,38,8.40
2020,04,12,07,39,8.40
2020,04,12,07,40,8.40
2020,04,12,07,41,8.50
2020,04,12,07,42,8.50
2020,04,12,07,43,8.60
2020,04,12,07,44,8.60
2020,04,12,07,45,8.60
2020,04,12,07,46,8.70
2020,04,12,07,47,8.70
2020,04,12,07,48,8.70
2020,04,12,07,49,8.70
2020,04,12,07,50,8.80
2020,04,12,07,51,8.80
2020,04,12,07,52,8.80
2020,04,12,07,53,8.80
2020,04,12,07,54,8.80
2020,04,12,07,55,8.90
2020,04,12,07,56,8.90
2020,04,12,07,57,8.90
2020,04,12,07,58,9.00
2020,04,12,07,59,9.10
2020,04,12,08,00,9.10
2020,04,12,08,01,9.20
2020,04,12,08,02,9.20
2020,04,12,08,03,9.30
2020,04,12,08,04,9.30
2020,04,12,08,05,9.30
2020,04,12,08,06,9.40
2020,04,12,08,07,9.50
2020,04,12,08,08,9.50
2020,04,12,08,09,9.60
2020,04,12,08,10,9.60
2020,04,12,08,11,9.60
2020,04,12,08,12,9.60
2020,04,12,08,13,9.60
2020,04,12,08,14,9.60
2020,04,12,08,15,9.70
2020,04,12,08,16,9.70
2020,04,12,08,17,9.70
2020,04,12,08,18,9.80
2020,04,12,08,19,9.80
2020,04,12,08,20,9.80
2020,04,12,08,21,9.80
2020,04,12,08,22,9.90
2020,04,12,08,23,9.90
2020,04,12,08,24,9.90
2020,04,12,08,25,9.90
2020,04,12,08,26,9.90
2020,04,12,08,27,9.90
2020,04,12,08,28,9.90
2020,04,12,08,29,10.00
2020,04,12,08,30,10.00
2020,04,12,08,31,10.10
2020,04,12,08,32,10.10
2020,04,12,08,33,10.10
2020,04,12,08,34,10.20
2020,04,12,08,35,10.20
2020,04,12,08,36,10.20
2020,04,12,08,37,10.30
2020,04,12,08,38,10.30
2020,04,12,08,39,10.30
2020,04,12,08,40,10.40
2020,04,12,08,41,10.40
2020,04,12,08,42,10.40
2020,04,12,08,43,10.50
2020,04,12,08,44,10.50
2020,04,12,08,45,10.50
2020,04,12,08,46,10.50
2020,04,12,08,47,10.50
2020,04,12,08,48,10.60
2020,04,12,08,49,10.60
2020,04,12,08,50,10.60
2020,04,12,08,51,10.60
2020,04,12,08,52,10.60
2020,04,12,08,53,10.70
2020,04,12,08,54,10.70
2020,04,12,08,55,10.70
2020,04,12,08,56,10.80
2020,04,12,08,57,10.80
2020,04,12,08,58,10.80
2020,04,12,08,59,10.80
2020,04,12,09,00,10.80
2020,04,12,09,01,10.80
2020,04,12,09,02,10.80
2020,04,12,09,03,10.80
2020,04,12,09,04,10.80
2020,04,12,09,05,10.80
2020,04,12,09,06,10.70
2020,04,12,09,07,10.70
2020,04,12,09,08,10.70
2020,04,12,09,09,10.70
2020,04,12,09,10,10.80
2020,04,12,09,11,10.80
2020,04,12,09,12,10.80
2020,04,12,09,13,10.80
2020,04,12,09,14,10.80
2020,04,12,09,15,10.80
2020,04,12,09,16,10.80
2020,04,12,09,17,10.80
2020,04,12,09,18,10.80
2020,04,12,09,19,10.80
2020,04,12,09,20,10.90
2020,04,12,09,21,10.90
2020,04,12,09,22,11.00
2020,04,12,09,23,11.10
2020,04,12,09,24,11.10
2020,04,12,09,25,11.20
2020,04,12,09,26,11.20
2020,04,12,09,27,11.30
2020,04,12,09,28,11.40
2020,04,12,09,29,11.40
2020,04,12,09,30,11.40
2020,04,12,09,31,11.40
2020,04,12,09,32,11.40
2020,04,12,09,33,11.40
2020,04,12,09,34,11.40
2020,04,12,09,35,11.40
2020,04,12,09,36,11.30
2020,04,12,09,37,11.30
2020,04,12,09,38,11.20
2020,04,12,09,39,11.20
2020,04,12,09,40,11.20
2020,04,12,09,41,11.20
2020,04,12,09,42,11.20
2020,04,12,09,43,11.30
2020,04,12,09,44,11.30
2020,04,12,09,45,11.30
2020,04,12,09,46,11.40
2020,04,12,09,47,11.40
2020,04,12,09,48,11.50
2020,04,12,09,49,11.50
2020,04,12,09,50,11.60
2020,04,12,09,51,11.70
2020,04,12,09,52,11.70
2020,04,12,09,53,11.70
2020,04,12,09,54,11.60
2020,04,12,09,55,11.60
2020,04,12,09,56,11.60
2020,04,12,09,57,11.50
2020,04,12,09,58,11.50
2020,04,12,09,59,11.50
2020,04,12,10,00,11.50
2020,04,12,10,01,11.50
2020,04,12,10,02,11.60
2020,04,12,10,03,11.60
2020,04,12,10,04,11.70
2020,04,12,10,05,11.70
2020,04,12,10,06,11.80
2020,04,12,10,07,11.90
2020,04,12,10,08,11.90
2020,04,12,10,09,11.90
2020,04,12,10,10,11.90
2020,04,12,10,11,11.90
2020,04,12,10,12,11.90
2020,04,12,10,13,11.90
2020,04,12,10,14,11.90
2020,04,12,10,15,11.90
2020,04,12,10,16,11.90
2020,04,12,10,17,11.90
2020,04,12,10,18,12.00
2020,04,12,10,19,12.00
2020,04,12,10,20,11.90
2020,04,12,10,21,11.90
2020,04,12,10,22,11.80
2020,04,12,10,23,11.80
2020,04,12,10,24,11.80
2020,04,12,10,25,11.80
2020,04,12,10,26,11.80
2020,04,12,10,27,11.90
2020,04,12,10,28,11.90
2020,04,12,10,29,11.90
2020,04,12,10,30,11.90
2020,04,12,10,31,12.00
2020,04,12,10,32,12.10
2020,04,12,10,33,12.10
2020,04,12,10,34,12.20
2020,04,12,10,35,12.20
2020,04,12,10,36,12.20
2020,04,12,10,37,12.20
2020,04,12,10,38,12.20
2020,04,12,10,39,12.20
2020,04,12,10,40,12.20
2020,04,12,10,41,12.20
2020,04,12,10,42,12.20
2020,04,12,10,43,12.20
2020,04,12,10,44,12.30
2020,04,12,10,45,12.30
2020,04,12,10,46,12.30
2020,04,12,10,47,12.40
2020,04,12,10,48,12.50
2020,04,12,10,49,12.50
2020,04,12,10,50,12.60
2020,04,12,10,51,12.60
2020,04,12,10,52,12.50
2020,04,12,10,53,12.50
2020,04,12,10,54,12.40
2020,04,12,10,55,12.40
2020,04,12,10,56,12.40
2020,04,12,10,57,12.40
2020,04,12,10,58,12.50
2020,04,12,10,59,12.60
2020,04,12,11,00,12.60
2020,04,12,11,01,12.70
2020,04,12,11,02,12.80
2020,04,12,11,03,12.80
2020,04,12,11,04,12.70
2020,04,12,11,05,12.70
2020,04,12,11,06,12.80
2020,04,12,11,07,12.90
2020,04,12,11,08,12.90
2020,04,12,11,09,13.00
2020,04,12,11,10,12.90
2020,04,12,11,11,12.90
2020,04,12,11,12,12.90
2020,04,12,11,13,12.90
2020,04,12,11,14,12.90
2020,04,12,11,15,12.90
2020,04,12,11,16,12.80
2020,04,12,11,17,12.70
2020,04,12,11,18,12.60
2020,04,12,11,19,12.60
2020,04,12,11,20,12.50
2020,04,12,11,21,12.50
2020,04,12,11,22,12.60
2020,04,12,11,23,12.60
2020,04,12,11,24,12.60
2020,04,12,11,25,12.70
2020,04,12,11,26,12.70
2020,04,12,11,27,12.70
2020,04,12,11,28,12.70
2020,04,12,11,29,12.70
2020,04,12,11,30,12.80
2020,04,12,11,31,12.80
2020,04,12,11,32,12.80
2020,04,12,11,33,12.80
2020,04,12,11,34,12.70
2020,04,12,11,35,12.70
2020,04,12,11,36,12.70
2020,04,12,11,37,12.80
2020,04,12,11,38,12.80
2020,04,12,11,39,12.80
2020,04,12,11,40,12.90
2020,04,12,11,41,12.90
2020,04,12,11,42,12.90
2020,04,12,11,43,12.90
2020,04,12,11,44,12.90
2020,04,12,11,45,13.00
2020,04,12,11,46,13.00
2020,04,12,11,47,13.00
2020,04,12,11,48,13.00
2020,04,12,11,49,13.00
2020,04,12,11,50,13.00
2020,04,12,11,51,13.10
2020,04,12,11,52,13.20
2020,04,12,11,53,13.20
2020,04,12,11,54,13.30
2020,04,12,11,55,13.20
2020,04,12,11,56,13.20
2020,04,12,11,57,13.20
2020,04,12,11,58,13.10
2020,04,12,11,59,13.00
2020,04,12,12,00,12.90
2020,04,12,12,01,13.00
2020,04,12,12,02,13.00
2020,04,12,12,03,13.10
2020,04,12,12,04,13.10
2020,04,12,12,05,13.10
2020,04,12,12,06,13.20
2020,04,12,12,07,13.20
2020,04,12,12,08,13.30
2020,04,12,12,09,13.30
2020,04,12,12,10,13.30
2020,04,12,12,11,13.30
2020,04,12,12,12,13.30
2020,04,12,12,13,13.30
2020,04,12,12,14,13.30
2020,04,12,12,15,13.30
2020,04,12,12,16,13.30
2020,04,12,12,17,13.40
2020,04,12,12,18,13.40
2020,04,12,12,19,13.40
2020,04,12,12,20,13.50
2020,04,12,12,21,13.50
2020,04,12,12,22,13.40
2020,04,12,12,23,13.40
2020,04,12,12,24,13.40
2020,04,12,12,25,13.30
2020,04,12,12,26,13.30
2020,04,12,12,27,13.30
2020,04,12,12,28,13.30
2020,04,12,12,29,13.30
2020,04,12,12,30,13.40
2020,04,12,12,31,13.40
2020,04,12,12,32,13.40
2020,04,12,12,33,13.40
2020,04,12,12,34,13.40
2020,04,12,12,35,13.50
2020,04,12,12,36,13.50
2020,04,12,12,37,13.50
2020,04,12,12,38,13.50
2020,04,12,12,39,13.50
2020,04,12,12,40,13.50
2020,04,12,12,41,13.50
2020,04,12,12,42,13.60
2020,04,12,12,43,13.60
2020,04,12,12,44,13.60
2020,04,12,12,45,13.50
2020,04,12,12,46,13.60
2020,04,12,12,47,13.60
2020,04,12,12,48,13.60
2020,04,12,12,49,13.70
2020,04,12,12,50,13.80
2020,04,12,12,51,13.80
2020,04,12,12,52,13.90
2020,04,12,12,53,13.90
2020,04,12,12,54,14.00
2020,04,12,12,55,14.10
2020,04,12,12,56,14.10
2020,04,12,12,57,14.20
2020,04,12,12,58,14.10
2020,04,12,12,59,14.10
2020,04,12,13,00,14.10
2020,04,12,13,01,14.10
2020,04,12,13,02,14.20
2020,04,12,13,03,14.30
2020,04,12,13,04,14.30
2020,04,12,13,05,14.30
2020,04,12,13,06,14.20
2020,04,12,13,07,14.10
2020,04,12,13,08,14.00
2020,04,12,13,09,14.00
2020,04,12,13,10,13.90
2020,04,12,13,11,13.90
2020,04,12,13,12,13.90
2020,04,12,13,13,13.80
2020,04,12,13,14,13.80
2020,04,12,13,15,13.70
2020,04,12,13,16,13.70
2020,04,12,13,17,13.80
2020,04,12,13,18,13.80
2020,04,12,13,19,13.80
2020,04,12,13,20,13.80
2020,04,12,13,21,13.80
2020,04,12,13,22,13.80
2020,04,12,13,23,13.90
2020,04,12,13,24,13.90
2020,04,12,13,25,14.00
2020,04,12,13,26,14.10
2020,04,12,13,27,14.10
2020,04,12,13,28,14.10
2020,04,12,13,29,14.10
2020,04,12,13,30,14.20
2020,04,12,13,31,14.20
2020,04,12,13,32,14.30
2020,04,12,13,33,14.30
2020,04,12,13,34,14.30
2020,04,12,13,35,14.40
2020,04,12,13,36,14.40
2020,04,12,13,37,14.30
2020,04,12,13,38,14.40
2020,04,12,13,39,14.40
2020,04,12,13,40,14.40
2020,04,12,13,41,14.30
2020,04,12,13,42,14.30
2020,04,12,13,43,14.30
2020,04,12,13,44,14.30
2020,04,12,13,45,14.30
2020,04,12,13,46,14.30
2020,04,12,13,47,14.30
2020,04,12,13,48,14.30
2020,04,12,13,49,14.30
2020,04,12,13,50,14.30
2020,04,12,13,51,14.20
2020,04,12,13,52,14.10
2020,04,12,13,53,14.10
2020,04,12,13,54,14.20
2020,04,12,13,55,14.20
2020,04,12,13,56,14.30
2020,04,12,13,57,14.30
2020,04,12,13,58,14.40
2020,04,12,13,59,14.50
2020,04,12,14,00,14.60
2020,04,12,14,01,14.60
2020,04,12,14,02,14.80
2020,04,12,14,03,14.80
2020,04,12,14,04,14.90
2020,04,12,14,05,15.00
2020,04,12,14,06,15.10
2020,04,12,14,07,15.10
2020,04,12,14,08,15.20
2020,04,12,14,09,15.30
2020,04,12,14,10,15.40
2020,04,12,14,11,15.40
2020,04,12,14,12,15.40
2020,04,12,14,13,15.40
2020,04,12,14,14,15.30
2020,04,12,14,15,15.30
2020,04,12,14,16,15.20
2020,04,12,14,17,15.20
2020,04,12,14,18,15.20
2020,04,12,14,19,15.10
2020,04,12,14,20,15.10
2020,04,12,14,21,15.00
2020,04,12,14,22,15.00
2020,04,12,14,23,15.10
2020,04,12,14,24,15.10
2020,04,12,14,25,15.20
2020,04,12,14,26,15.20
2020,04,12,14,27,15.30
2020,04,12,14,28,15.30
2020,04,12,14,29,15.30
2020,04,12,14,30,15.30
2020,04,12,14,31,15.30
2020,04,12,14,32,15.30
2020,04,12,14,33,15.20
2020,04,12,14,34,15.10
2020,04,12,14,35,15.00
2020,04,12,14,36,14.90
2020,04,12,14,37,14.90
2020,04,12,14,38,14.80
2020,04,12,14,39,14.80
2020,04,12,14,40,14.90
2020,04,12,14,41,14.90
2020,04,12,14,42,14.90
2020,04,12,14,43,14.90
2020,04,12,14,44,14.90
2020,04,12,14,45,14.90
2020,04,12,14,46,14.90
2020,04,12,14,47,14.90
2020,04,12,14,48,14.90
2020,04,12,14,49,14.90
2020,04,12,14,50,15.00
2020,04,12,14,51,15.00
2020,04,12,14,52,15.10
2020,04,12,14,53,15.20
2020,04,12,14,54,15.30
2020,04,12,14,55,15.30
2020,04,12,14,56,15.30
2020,04,12,14,57,15.30
2020,04,12,14,58,15.30
2020,04,12,14,59,15.20
2020,04,12,15,00,15.20
2020,04,12,15,01,15.20
2020,04,12,15,02,15.10
2020,04,12,15,03,15.10
2020,04,12,15,04,15.10
2020,04,12,15,05,15.10
2020,04,12,15,06,15.10
2020,04,12,15,07,15.10
2020,04,12,15,08,15.10
2020,04,12,15,09,15.10
2020,04,12,15,10,15.10
2020,04,12,15,11,15.10
2020,04,12,15,12,15.10
2020,04,12,15,13,15.10
2020,04,12,15,14,15.00
2020,04,12,15,15,15.00
2020,04,12,15,16,15.10
2020,04,12,15,17,15.10
2020,04,12,15,18,15.10
2020,04,12,15,19,15.10
2020,04,12,15,20,15.10
2020,04,12,15,21,15.10
2020,04,12,15,22,15.10
2020,04,12,15,23,15.10
2020,04,12,15,24,15.20
2020,04,12,15,25,15.30
2020,04,12,15,26,15.30
2020,04,12,15,27,15.30
2020,04,12,15,28,15.30
2020,04,12,15,29,15.30
2020,04,12,15,30,15.20
2020,04,12,15,31,15.20
2020,04,12,15,32,15.20
2020,04,12,15,33,15.20
2020,04,12,15,34,15.20
2020,04,12,15,35,15.10
2020,04,12,15,36,15.10
2020,04,12,15,37,15.00
2020,04,12,15,38,15.00
2020,04,12,15,39,15.10
2020,04,12,15,40,15.20
2020,04,12,15,41,15.20
2020,04,12,15,42,15.30
2020,04,12,15,43,15.30
2020,04,12,15,44,15.40
2020,04,12,15,45,15.40
2020,04,12,15,46,15.30
2020,04,12,15,47,15.30
2020,04,12,15,48,15.30
2020,04,12,15,49,15.30
2020,04,12,15,50,15.30
2020,04,12,15,51,15.30
2020,04,12,15,52,15.40
2020,04,12,15,53,15.50
2020,04,12,15,54,15.60
2020,04,12,15,55,15.60
2020,04,12,15,56,15.60
2020,04,12,15,57,15.50
2020,04,12,15,58,15.50
2020,04,12,15,59,15.40
2020,04,12,16,00,15.50
2020,04,12,16,01,15.50
2020,04,12,16,02,15.50
2020,04,12,16,03,15.40
2020,04,12,16,04,15.40
2020,04,12,16,05,15.40
2020,04,12,16,06,15.30
2020,04,12,16,07,15.30
2020,04,12,16,08,15.30
2020,04,12,16,09,15.30
2020,04,12,16,10,15.30
2020,04,12,16,11,15.30
2020,04,12,16,12,15.40
2020,04,12,16,13,15.50
2020,04,12,16,14,15.60
2020,04,12,16,15,15.60
2020,04,12,16,16,15.60
2020,04,12,16,17,15.60
2020,04,12,16,18,15.50
2020,04,12,16,19,15.50
2020,04,12,16,20,15.40
2020,04,12,16,21,15.40
2020,04,12,16,22,15.30
2020,04,12,16,23,15.30
2020,04,12,16,24,15.30
2020,04,12,16,25,15.30
2020,04,12,16,26,15.40
2020,04,12,16,27,15.50
2020,04,12,16,28,15.60
2020,04,12,16,29,15.60
2020,04,12,16,30,15.70
2020,04,12,16,31,15.70
2020,04,12,16,32,15.60
2020,04,12,16,33,15.60
2020,04,12,16,34,15.50
2020,04,12,16,35,15.50
2020,04,12,16,36,15.50
2020,04,12,16,37,15.50
2020,04,12,16,38,15.50
2020,04,12,16,39,15.40
2020,04,12,16,40,15.40
2020,04,12,16,41,15.30
2020,04,12,16,42,15.30
2020,04,12,16,43,15.30
2020,04,12,16,44,15.30
2020,04,12,16,45,15.30
2020,04,12,16,46,15.30
2020,04,12,16,47,15.30
2020,04,12,16,48,15.30
2020,04,12,16,49,15.40
2020,04,12,16,50,15.40
2020,04,12,16,51,15.40
2020,04,12,16,52,15.40
2020,04,12,16,53,15.50
2020,04,12,16,54,15.40
2020,04,12,16,55,15.40
2020,04,12,16,56,15.30
2020,04,12,16,57,15.20
2020,04,12,16,58,15.20
2020,04,12,16,59,15.10
2020,04,12,17,00,15.10
2020,04,12,17,01,15.10
2020,04,12,17,02,15.10
2020,04,12,17,03,15.10
2020,04,12,17,04,15.10
2020,04,12,17,05,15.00
2020,04,12,17,06,15.00
2020,04,12,17,07,15.10
2020,04,12,17,08,15.10
2020,04,12,17,09,15.20
2020,04,12,17,10,15.20
2020,04,12,17,11,15.20
2020,04,12,17,12,15.20
2020,04,12,17,13,15.20
2020,04,12,17,14,15.30
2020,04,12,17,15,15.30
2020,04,12,17,16,15.30
2020,04,12,17,17,15.30
2020,04,12,17,18,15.30
2020,04,12,17,19,15.30
2020,04,12,17,20,15.40
2020,04,12,17,21,15.40
2020,04,12,17,22,15.40
2020,04,12,17,23,15.40
2020,04,12,17,24,15.40
2020,04,12,17,25,15.40
2020,04,12,17,26,15.30
2020,04,12,17,27,15.30
2020,04,12,17,28,15.30
2020,04,12,17,29,15.20
2020,04,12,17,30,15.20
2020,04,12,17,31,15.20
2020,04,12,17,32,15.10
2020,04,12,17,33,15.10
2020,04,12,17,34,15.10
2020,04,12,17,35,15.00
2020,04,12,17,36,15.00
2020,04,12,17,37,14.90
2020,04,12,17,38,14.90
2020,04,12,17,39,14.90
2020,04,12,17,40,14.90
2020,04,12,17,41,14.90